TimeCDT,TemperatureF,Dew PointF,Humidity,Sea Level PressureIn,VisibilityMPH,Wind Direction,Wind SpeedMPH,Gust SpeedMPH,PrecipitationIn,Events,Conditions,WindDirDegrees,DateUTC
12:53 AM,63.0,60.1,90,29.70,6.0,South,18.4,26.5,0.08,Rain,Light Rain,180,2013-05-30 05:53:00
1:27 AM,62.6,59.0,88,29.70,7.0,South,15.0,25.3,0.09,Rain-Thunderstorm,Light Rain,170,2013-05-30 06:27:00
1:42 AM,62.6,60.8,94,29.71,10.0,SSE,16.1,-,0.10,Rain,Light Rain,160,2013-05-30 06:42:00
1:53 AM,63.0,60.1,90,29.68,6.0,South,11.5,-,0.12,Rain,Light Rain,170,2013-05-30 06:53:00
2:53 AM,62.1,60.1,93,29.69,10.0,SSE,16.1,-,0.10,Rain,Light Rain,160,2013-05-30 07:53:00
3:53 AM,62.1,60.1,93,29.64,10.0,SSE,15.0,-,0.03,,Partly Cloudy,150,2013-05-30 08:53:00
4:04 AM,62.6,60.8,94,29.67,10.0,SSE,18.4,25.3,N/A,,Scattered Clouds,160,2013-05-30 09:04:00
4:53 AM,62.1,60.1,93,29.65,10.0,SSE,13.8,21.9,N/A,,Partly Cloudy,160,2013-05-30 09:53:00
5:16 AM,62.6,60.8,94,29.70,10.0,South,12.7,19.6,N/A,,Mostly Cloudy,180,2013-05-30 10:16:00
5:53 AM,63.0,61.0,93,29.66,10.0,South,13.8,-,0.00,,Overcast,170,2013-05-30 10:53:00
6:22 AM,62.6,60.8,94,29.65,10.0,SSE,18.4,25.3,0.01,Rain,Light Rain,150,2013-05-30 11:22:00
6:53 AM,63.0,60.1,90,29.63,10.0,South,17.3,27.6,0.01,Rain,Light Rain,170,2013-05-30 11:53:00
7:53 AM,63.0,60.1,90,29.65,5.0,South,13.8,23.0,0.06,Rain,Light Rain,180,2013-05-30 12:53:00
8:53 AM,63.0,60.1,90,29.66,9.0,Calm,Calm,-,0.08,Rain,Light Rain,0,2013-05-30 13:53:00
9:05 AM,62.6,60.8,94,29.68,7.0,SSE,6.9,-,0.01,Rain,Light Rain,160,2013-05-30 14:05:00
9:19 AM,62.6,60.8,94,29.71,6.0,South,10.4,17.3,0.04,Rain,Light Rain,190,2013-05-30 14:19:00
9:32 AM,62.6,60.8,94,29.70,3.0,South,11.5,-,0.08,Rain-Thunderstorm,Thunderstorms and Rain,170,2013-05-30 14:32:00
9:43 AM,62.6,60.8,94,29.70,1.8,South,9.2,-,0.15,Rain-Thunderstorm,Heavy Thunderstorms and Rain,180,2013-05-30 14:43:00
9:49 AM,62.6,60.8,94,29.69,1.0,South,9.2,19.6,0.21,Rain-Thunderstorm,Heavy Thunderstorms and Rain,180,2013-05-30 14:49:00
9:53 AM,62.1,60.1,93,29.65,1.5,South,5.8,19.6,0.22,Rain-Thunderstorm,Light Thunderstorms and Rain,170,2013-05-30 14:53:00
9:57 AM,62.6,60.8,94,29.67,3.0,SSE,8.1,-,0.01,Rain-Thunderstorm,Light Thunderstorms and Rain,150,2013-05-30 14:57:00
10:17 AM,62.6,60.8,94,29.68,1.5,SSE,16.1,21.9,0.11,Rain-Thunderstorm,Heavy Thunderstorms and Rain,150,2013-05-30 15:17:00
10:38 AM,62.6,60.8,94,29.70,3.0,West,13.8,-,0.20,Rain-Thunderstorm,Light Thunderstorms and Rain,270,2013-05-30 15:38:00
10:40 AM,62.6,60.8,94,29.70,1.8,West,12.7,20.7,0.25,Rain-Thunderstorm,Thunderstorms and Rain,270,2013-05-30 15:40:00
10:44 AM,62.6,60.8,94,29.70,0.8,West,9.2,20.7,0.33,Rain-Thunderstorm,Heavy Thunderstorms and Rain,280,2013-05-30 15:44:00
10:50 AM,62.6,60.8,94,29.71,0.5,West,11.5,-,0.39,Fog-Rain-Thunderstorm,Heavy Rain,280,2013-05-30 15:50:00
10:51 AM,62.6,60.8,94,29.71,0.8,West,12.7,-,0.39,Rain-Thunderstorm,Heavy Rain,280,2013-05-30 15:51:00
10:53 AM,62.1,60.1,93,29.67,0.8,NW,12.7,-,0.41,Rain-Thunderstorm,Heavy Rain,310,2013-05-30 15:53:00
11:05 AM,62.6,60.8,94,29.69,0.8,WNW,5.8,-,0.03,Rain,Light Rain,290,2013-05-30 16:05:00
11:22 AM,62.6,60.8,94,29.70,0.8,Calm,Calm,-,0.16,Rain-Thunderstorm,Light Thunderstorms and Rain,0,2013-05-30 16:22:00
11:33 AM,62.6,60.8,94,29.70,0.8,West,3.5,-,0.18,Rain-Thunderstorm,Light Thunderstorms and Rain,270,2013-05-30 16:33:00
11:53 AM,62.1,61.0,96,29.72,0.8,West,8.1,-,0.19,Rain-Thunderstorm,Light Thunderstorms and Rain,280,2013-05-30 16:53:00
11:55 AM,62.6,60.8,94,29.74,6.0,WNW,10.4,-,0.00,Rain,Light Rain,290,2013-05-30 16:55:00
12:05 PM,62.6,60.8,94,29.73,4.0,NW,13.8,23.0,0.01,Rain,Light Rain,320,2013-05-30 17:05:00
12:22 PM,62.6,59.0,88,29.72,3.0,Variable,6.9,23.0,0.06,Rain,Rain,0,2013-05-30 17:22:00
12:43 PM,62.6,59.0,88,29.67,10.0,ESE,6.9,-,0.08,Rain-Thunderstorm,Light Rain,120,2013-05-30 17:43:00
12:53 PM,62.1,59.0,90,29.64,10.0,SE,5.8,-,0.08,Rain,Light Rain,130,2013-05-30 17:53:00
1:06 PM,62.6,59.0,88,29.65,5.0,SE,8.1,-,0.02,Rain-Thunderstorm,Light Thunderstorms and Rain,130,2013-05-30 18:06:00
1:21 PM,62.6,59.0,88,29.68,10.0,SSE,11.5,-,0.03,Rain,Light Rain,160,2013-05-30 18:21:00
1:53 PM,62.1,60.1,93,29.62,10.0,South,10.4,-,0.05,Rain-Thunderstorm,Light Rain,180,2013-05-30 18:53:00
2:12 PM,62.6,60.8,94,29.67,9.0,South,12.7,21.9,0.01,Rain-Thunderstorm,Light Rain,170,2013-05-30 19:12:00
2:33 PM,62.6,60.8,94,29.67,10.0,SSE,21.9,31.1,0.01,,Partly Cloudy,160,2013-05-30 19:33:00
2:53 PM,64.0,61.0,90,29.65,10.0,South,15.0,-,0.01,,Clear,180,2013-05-30 19:53:00
3:53 PM,64.9,61.0,87,29.62,10.0,SSW,11.5,-,N/A,,Partly Cloudy,200,2013-05-30 20:53:00
4:53 PM,70.0,63.0,78,29.63,10.0,SW,12.7,18.4,N/A,,Clear,220,2013-05-30 21:53:00
5:53 PM,72.0,63.0,73,29.63,10.0,South,11.5,18.4,N/A,,Clear,180,2013-05-30 22:53:00
6:53 PM,71.1,63.0,75,29.64,10.0,South,9.2,-,N/A,,Clear,190,2013-05-30 23:53:00
7:53 PM,69.1,63.0,81,29.66,10.0,South,5.8,-,N/A,,Clear,180,2013-05-31 00:53:00
8:53 PM,66.0,63.0,90,29.71,10.0,SW,4.6,-,N/A,,Partly Cloudy,230,2013-05-31 01:53:00
9:53 PM,64.0,62.1,93,29.71,10.0,SSE,8.1,-,N/A,,Clear,160,2013-05-31 02:53:00
10:53 PM,64.9,62.1,90,29.70,10.0,SSE,13.8,24.2,N/A,,Clear,150,2013-05-31 03:53:00
11:53 PM,64.9,62.1,90,29.73,10.0,South,5.8,-,N/A,,Clear,190,2013-05-31 04:53:00